Find uHETsat

NORAD ID: 58466 Int'l Des: 2023-185 Owner: SITAEL Country: I operational
LEOCIRCULARRETROGRADESSO

リアルタイム位置

3D地球を読み込み中...

uHETsatについて

説明を読み込み中...

次回通過

Passes for default location (London). Set your location on the main map for personalized predictions.

高度履歴

Loading altitude history...

軌道要素

1 58466U 23185E 26106.87447877 .00004528 00000-0 15630-3 0 9992
2 58466 97.3526 174.9195 0013825 162.7158 197.4557 15.30385283131919
Epoch: Apr 16, 2026 • Age: 5 hours

現在のステータス

高度 484.7 km
速度 7.63 km/s
衛星直下点 82.00°N, 175.76°W
打ち上げ日 Dec 1, 2023
運用期間 2.3 years
タイプ other

技術仕様

分類 Payload
質量 70.00 kg
乾燥質量 70.00 kg
総質量 70.00 kg
長さ 0.70 m
直径 0.40 m
スパン 0.70 m
形状 Box
製造者 SITAEL
バスタイプ S-50
フェーズステータス In Orbit
所有者/国 SITAEL/I

Most Searched